Uncategorized

2021 Ratings: OK Blue 1

I’m extremely intrigued by this Unity Christian course.

How Are Speed Ratings Calculated?

Girls Adjustment: -63
Boys Adjustment: -55

GradeNameTimeTeamRating
11Lily Parker20:36.6Spring Lake128.8
12Maggie Duba20:41.4Grand Rapids West Catholic127.2
9Lexie Ruffing21:13.2Spring Lake116.6
10Alyssa Butterfield21:27.3Allendale111.9
11Ava Buhlman21:36.0Allendale109.0
12Sarah Schloff21:41.7Holland Christian107.1
11Trina Farris21:42.8Hamilton106.7
10Bea Reeser22:04.0Spring Lake99.7
10Addison Noble22:30.8Allendale90.7
12Alaina Dokter22:35.9Holland Christian89.0
12Emma Kern22:40.4Holland Christian87.5
9Valerie Pollock22:44.8Fruitport86.1
11Brooke Sweet22:56.4Fruitport82.2
10Lily LeSarge22:57.5Grand Rapids West Catholic81.8
11Ella Schwartz23:06.3Hamilton78.9
11Jessie Postma23:07.1Hudsonville Unity Christian78.6
10Sylvie Mulder23:14.8Holland Christian76.1
12Riley DeLore23:22.0Allendale73.7
9Anya Steele23:22.4Coopersville73.5
12Anna Stempky23:24.0Spring Lake73.0
11Alyssa Gerritsma23:25.3Holland Christian72.6
11Jenna Hinken23:29.6Allendale71.1
12Makaela Schmidt23:30.3Spring Lake70.9
10Abby Druelle23:44.5Grand Rapids West Catholic66.2
12Jennifer Judge23:44.8Spring Lake66.1
10Claire Smith23:51.0Grand Rapids West Catholic64.0
12Mackenzie Schilthuis23:51.7Hudsonville Unity Christian63.8
10Katie Riemersma23:52.1Spring Lake63.6
12Claire Van Duinen23:58.4Holland Christian61.5
11Emma Heyerman24:03.5Hamilton59.8
11Ellery Alkema24:06.6Allendale58.8
11Brenna Pothoof24:10.7Allendale57.4
12Eryn Bouwhuis24:16.8Spring Lake55.4
12Isabella Padula24:32.0Spring Lake50.3
12Kayla Purvis24:39.2Spring Lake47.9
10Lauren Lee24:44.0Fruitport46.3
12Kaitlyn Yonker24:44.4Fruitport46.2
9Maya VanSolkema24:47.8Hudsonville Unity Christian45.1
11Maggie McKeiver24:48.1Grand Rapids West Catholic45.0
11Lainey Roth24:48.3Grand Rapids West Catholic44.9
11Addison Essebaggers24:48.6Hudsonville Unity Christian44.8
10Maya Noren24:48.8Spring Lake44.7
11Adriana Byker24:49.1Hudsonville Unity Christian44.6
9Taryn Landers24:50.1Hudsonville Unity Christian44.3
11Elyse Genzink24:50.4Hamilton44.2
12Sierra Vanderwier24:50.7Fruitport44.1
9Grace Fenton24:51.1Holland Christian44.0
9Brooklyn Verplank24:51.5Spring Lake43.8
11Aubrey Sibble24:52.0Hamilton43.7
10Ellie Miller24:53.0Spring Lake43.3
11Nathalie Strockis24:53.5Grand Rapids West Catholic43.2
9Noelle Nienhuis24:54.4Hudsonville Unity Christian42.9
9Kate Witherell24:54.7Spring Lake42.8
12Aliyah Harned24:55.1Holland Christian42.6
12Grace Bruins24:59.4Hudsonville Unity Christian41.2
12Bri Hofman25:08.0Hamilton38.3
12Sophia Dech25:08.5Coopersville38.2
9Lydia Recor25:15.3Spring Lake35.9
9Maddie Bruxvoort25:18.8Hudsonville Unity Christian34.7
11Bella Dykstra25:20.9Holland Christian34.0
10Abby Nuiver25:24.0Hudsonville Unity Christian33.0
11Alyson Vikstrom25:24.4Holland Christian32.9
9Bethany Zimmerman25:29.3Spring Lake31.2
11Alisa Westerling25:39.2Allendale27.9
11Georgia Rotman25:39.4Hudsonville Unity Christian27.9
12Clair Czadzeck25:39.7Spring Lake27.8
10Katie Landstra25:45.7Hudsonville Unity Christian25.8
9Evelyn Vandlen25:47.7Spring Lake25.1
10Caroline Johnson25:54.4Hamilton22.9
11Taylor Talcott25:55.3Allendale22.6
12Bebe Mulder26:05.2Holland Christian19.3
11Hallie Kooyer26:10.8Hudsonville Unity Christian17.4
9Sierra Grooters26:25.4Hudsonville Unity Christian12.5
9Natalie Kooyer26:27.7Hudsonville Unity Christian11.8
11Lauren Brondyke26:34.7Hamilton9.4
10Maddie Bosch26:39.7Hudsonville Unity Christian7.8
11Giselle Cossey26:42.4Spring Lake6.9
9Lauren Steenland26:46.4Coopersville5.5
11Delaney Brown26:47.8Allendale5.1
10Hope Beaune26:54.1Coopersville3.0
11Taylor Hubbs26:54.9Allendale2.7
11Emily Veldkamp26:58.1Allendale1.6
10Brenna Olewinski26:59.9Grand Rapids West Catholic1.0
9Audrey McKeiver27:03.0Grand Rapids West Catholic0.0

GradeNameTimeTeamRating
12Ian Hill17:08.8Spring Lake195.4
12Parker Lambers17:23.5Holland Christian190.5
9Killian Whalen17:26.0Allendale189.7
12Gavin VanSolkema17:42.6Hudsonville Unity Christian184.1
11Max VanHuis17:57.9Hamilton179.0
9Abatu Dykstra18:15.1Hamilton173.3
9Aidan Brinks18:15.2Holland Christian173.3
11Sam Strabbing18:36.7Holland Christian166.1
10Levi Glynn18:38.1Fruitport165.6
12Sam Davidson18:41.4Spring Lake164.5
12Carter Phillips18:43.1Spring Lake164.0
9Will Engbers18:43.8Holland Christian163.7
9Karsten Huisman18:52.9Holland Christian160.7
11Ethan Grevengoed18:57.9Spring Lake159.0
10Alex Facundo18:58.4Fruitport158.9
12Cameron Moore19:09.0Allendale155.4
12Austin Brinks19:09.6Holland Christian155.1
9Parker Tiethof19:10.6Allendale154.8
12Braedon Veurink19:12.4Hudsonville Unity Christian154.2
9Ethan Miller19:14.6Hudsonville Unity Christian153.5
10Max Springer19:23.6Allendale150.5
9Colin Taylor-DeNoo…19:29.6Holland Christian148.5
11Johnathon McMullin19:31.0Fruitport148.0
11Austin Barding19:31.4Spring Lake147.9
9Brayden Rynsburger19:36.4Holland Christian146.2
10Ethan Horan19:39.3Fruitport145.3
12Connor Lodholtz19:39.5Fruitport145.2
9Vincent Pollock19:47.1Fruitport142.6
10Lucas Ruffing19:49.6Spring Lake141.8
12Nick Penrice19:52.8Spring Lake140.7
11Tanner Guczwa19:53.8Spring Lake140.4
11Nathan DeWitt19:54.6Holland Christian140.1
9Nathan Steen19:57.4Holland Christian139.2
10Evan Kraker19:58.7Hamilton138.8
11Nate Oosterhouse20:03.2Hudsonville Unity Christian137.3
9Christian Huizenga20:05.4Holland Christian136.5
12Kreegan Deverney20:07.6Spring Lake135.8
10Brendan Nolan20:08.1Coopersville135.6
9Benjamin Hoekstra20:08.4Hudsonville Unity Christian135.5
11Todd Leatherman20:09.9Hudsonville Unity Christian135.0
9Caleb DenHartigh20:10.5Hudsonville Unity Christian134.9
12Henry Berghoef20:22.4Holland Christian130.9
12Sam Perton20:22.7Holland Christian130.8
11Ephraim Dykstra20:23.4Hudsonville Unity Christian130.5
9Parker Woodwyk20:23.8Spring Lake130.4
12Jacob Piper20:24.7Fruitport130.1
12Peter VanderPloeg20:25.3Holland Christian129.9
11Carson Millspaugh20:26.6Holland Christian129.5
11Eli Ernst20:44.2Hudsonville Unity Christian123.6
9Grady Bremer20:48.5Hudsonville Unity Christian122.2
12Adrian Cooney20:48.6Holland Christian122.1
10Ethan Sheedlo20:53.6Hamilton120.5
11Ty Ritsema20:53.9Hamilton120.4
10Brody Crandall20:58.9Hamilton118.7
9Jake Chase21:05.5Hamilton116.5
10Alex Wilber21:06.1Fruitport116.3
12Daniel Armas21:09.0Hudsonville Unity Christian115.4
11Luke Marsman21:09.6Hudsonville Unity Christian115.1
12Andre-Ross Gennette21:11.2Spring Lake114.6
10Tyler Bakhuyzen21:15.9Hudsonville Unity Christian113.0
10Jack VandeGuchte21:23.1Grand Rapids West Catholic110.6
9Evan Miedema21:27.5Hudsonville Unity Christian109.2
10Liam Pothoff21:32.7Hamilton107.4
10Zach Kern21:34.1Holland Christian107.0
10Josiah Meyers21:35.6Holland Christian106.5
9Tyler Bostrom21:35.9Holland Christian106.4
11Chandler Silk21:37.4Allendale105.9
9Nathan Koches21:38.0Spring Lake105.7
9Weston Carpenter21:44.8Spring Lake103.4
12Elliot Stielstra21:45.0Holland Christian103.3
11Jason Bos21:57.5Holland Christian99.2
10Bryce Baumgardner21:57.9Fruitport99.0
12Sam Rickerd21:57.9Coopersville99.0
9Joey Oppenhuizen22:09.3Hamilton95.3
12Luke Schmidt22:10.0Hudsonville Unity Christian95.0
12Israel Duncan22:10.5Holland Christian94.8
10Ben Vruggink22:21.9Spring Lake91.0
9Evan Murphy22:27.6Grand Rapids West Catholic89.1
9Kaden DeWys22:45.8Hamilton83.1
9Charles Brooks22:46.7Grand Rapids West Catholic82.8
11Peyton Selk22:51.0Allendale81.3
9Isaac Primm23:00.0Spring Lake78.3
11Gabriel Byrne23:10.1Hamilton75.0
12Sam Nicely23:11.6Holland Christian74.5
11Elijah Luce23:16.9Holland Christian72.7
9Ben Dykstra23:26.5Hamilton69.5
10Jonah Sanchez23:27.0Coopersville69.3
10Zander Gordon23:29.9Hudsonville Unity Christian68.4
12Quentin O’Donnell23:30.1Spring Lake68.3
10Simon Grooters23:33.5Hudsonville Unity Christian67.2
9Carter Charnley23:41.9Spring Lake64.4
11Caleb Demaster23:59.4Holland Christian58.5
12August Christensen24:04.7Grand Rapids West Catholic56.8
9Lucas Bronson24:04.9Allendale56.7
9Tim O’Brien24:09.7Grand Rapids West Catholic55.1
11Caleb Huizenga24:11.4Grand Rapids West Catholic54.5
10Leo Christner24:25.1Hudsonville Unity Christian50.0
11Randle Kado24:25.2Grand Rapids West Catholic49.9
9Jacob Kuipers24:36.9Hudsonville Unity Christian46.0
12Conner Maycroft24:37.5Coopersville45.8
12Arien Baroi24:56.0Holland Christian39.7
10Brennan Peters24:59.7Hamilton38.4
10Eli Moorhouse25:00.6Allendale38.1
9Azariah Stevens25:27.2Coopersville29.3
10Jordan Alvarez25:29.2Hudsonville Unity Christian28.6
9Damian Widner25:46.2Hamilton22.9
9Jack Pummill26:05.8Spring Lake16.4
11Matt Beatty26:53.5Hamilton0.5

Leave a Reply

Fill in your details below or click an icon to log in:

WordPress.com Logo

You are commenting using your WordPress.com account. Log Out /  Change )

Google photo

You are commenting using your Google account. Log Out /  Change )

Twitter picture

You are commenting using your Twitter account. Log Out /  Change )

Facebook photo

You are commenting using your Facebook account. Log Out /  Change )

Connecting to %s